Marysville, CA

2:59 AM PDT on August 26, 2019 (GMT -0700)
Yuba County

Weather History for KMYV - June, 2019

Change the Weather History Date:

Thursday, June 6, 2019

  Actual Average Record
Temperature  
Mean Temperature 75 °F -  
Max Temperature 89 °F 87 °F 105 °F (1981)
Min Temperature 62 °F 59 °F 45 °F (2007)
Cooling Degree Days 10    
Growing Degree Days 25 (Base 50)    
Moisture  
Dew Point 52 °F    
Average Humidity 50    
Maximum Humidity 78    
Minimum Humidity 18    
Precipitation  
Precipitation 0.00 in - - ()
Sea Level Pressure  
Sea Level Pressure 29.83 in    
Wind  
Wind Speed 11 mph (South)    
Max Wind Speed 21 mph    
Max Gust Speed 26 mph    
Visibility 10 miles    
Events Rain    
Averages and records for this station are not official NWS values.
T = Trace of Precipitation, MM = Missing Value Source: NWS Daily Summary

Daily Weather History Graph

Daily Weather History Graph

Search for Another Location

Airport or City:

Astronomy

Jun. 06, 2019 Rise Set
Actual Time 5:40 AM PDT 8:29 PM PDT
Civil Twilight 5:08 AM PDT 9:01 PM PDT
Nautical Twilight 4:28 AM PDT 9:41 PM PDT
Astronomical Twilight 3:43 AM PDT 10:27 PM PDT
Moon 8:55 AM PDT (6/6) 11:52 PM PDT (6/6)
Length of Visible Light 15h 52m
Length of Day
14h 48m
Waxing Crescent, 14% of the Moon is Illuminated
Jun 6
Waxing Crescent
Jun 9
First Quarter
Jun 17
Full
Jun 25
Last Quarter
Jul 2
New

Hourly Weather History & Observations

Time (PDT) Temp. Heat Index Dew Point Humidity Pressure Visibility Wind Dir Wind Speed Gust Speed Precip Events Conditions
12:53 AM 72.0 °F - 62.1 °F 71% 29.78 in 10.0 mi SSE 6.9 mph - N/A   Clear
1:53 AM 69.1 °F - 60.1 °F 73% 29.79 in 10.0 mi SSE 9.2 mph - N/A   Clear
2:53 AM 66.9 °F - 57.9 °F 73% 29.79 in 10.0 mi South 6.9 mph - N/A   Clear
3:53 AM 64.0 °F - 57.0 °F 78% 29.80 in 10.0 mi South 5.8 mph - N/A   Clear
4:53 AM 63.0 °F - 55.0 °F 75% 29.80 in 10.0 mi SSE 8.1 mph - N/A   Clear
5:53 AM 62.1 °F - 55.0 °F 78% 29.81 in 10.0 mi SE 8.1 mph - N/A   Clear
6:53 AM 64.0 °F - 55.0 °F 73% 29.83 in 10.0 mi SSE 6.9 mph - N/A   Clear
7:53 AM 66.9 °F - 54.0 °F 63% 29.84 in 10.0 mi SSE 13.8 mph - N/A   Clear
8:53 AM 70.0 °F - 53.1 °F 55% 29.86 in 10.0 mi SSE 17.3 mph - 0.00 in Rain Light Rain
9:53 AM 73.9 °F - 53.1 °F 48% 29.86 in 10.0 mi SSE 12.7 mph - 0.00 in Rain Light Rain
10:53 AM 78.1 °F - 54.0 °F 43% 29.86 in 10.0 mi SSE 15.0 mph - 0.00 in Rain Light Rain
11:53 AM 82.0 °F 81.3 °F 54.0 °F 38% 29.87 in 10.0 mi South 13.8 mph 20.7 mph 0.00 in Rain Light Rain
12:53 PM 86.0 °F - 48.0 °F 27% 29.86 in 10.0 mi SSW 12.7 mph - 0.00 in Rain Light Rain
1:53 PM 86.0 °F - 51.1 °F 30% 29.84 in 10.0 mi SSE 17.3 mph 23.0 mph 0.00 in Rain Light Rain
2:53 PM 87.1 °F - 51.1 °F 29% 29.83 in 10.0 mi SSE 20.7 mph - 0.00 in Rain Light Rain
3:53 PM 87.1 °F - 52.0 °F 30% 29.82 in 10.0 mi SSE 17.3 mph 26.5 mph 0.00 in Rain Light Rain
4:53 PM 88.0 °F - 42.1 °F 20% 29.82 in 10.0 mi SSW 16.1 mph 23.0 mph 0.00 in Rain Light Rain
5:53 PM 86.0 °F - 37.0 °F 18% 29.81 in 10.0 mi SW 12.7 mph - 0.00 in Rain Light Rain
6:53 PM 82.9 °F - 39.0 °F 21% 29.81 in 10.0 mi SSW 12.7 mph - 0.00 in Rain Light Rain
7:53 PM 75.9 °F - 53.1 °F 45% 29.82 in 10.0 mi South 13.8 mph - 0.00 in Rain Light Rain
8:53 PM 71.1 °F - 51.1 °F 49% 29.84 in 10.0 mi SSE 18.4 mph 23.0 mph 0.00 in Rain Light Rain
9:53 PM 68.0 °F - 48.9 °F 50% 29.86 in 10.0 mi SSE 15.0 mph 20.7 mph 0.00 in Rain Light Rain
10:53 PM 64.9 °F - 48.0 °F 54% 29.87 in 10.0 mi SSE 13.8 mph - 0.00 in Rain Light Rain
11:53 PM 63.0 °F - 46.9 °F 56% 29.88 in 10.0 mi SSE 10.4 mph - 0.00 in Rain Light Rain